Volver al catálogo

GSAT 6A

ActivoComunicacionesMEO
NORAD 43241·PAYLOAD·🇮🇳 India

Lanzado Mar 29, 2018 desde Satish Dhawan Space Centre

Loading…

Próximos Pases (próximas 24 horas)

TLE

ActualizadoSource: Space-Track

Época: Sep 14, 2026, 18:37 UTC

1 43241U 18027A   26257.77631624 -.00000119  00000-0  00000-0 0  9992
2 43241   3.4333  79.5105 1322379 116.7223 264.9606  1.19316511 36930

Sigue GSAT 6A en tiempo real con AllMySat

Download on the App Store